CAPE
0 0 0 0 0 0 0 0 0 0 0 0 0 0 0 0 0 0 0 0 0 0 0 0 0 0 0 0 0 0 0 0 0 0 0 0 0 0 0 0 0 0 0
0 0 0 0 0 0 0 0 0 0 0 0 0 0 0 0 0 0 0 0 0 0 0 0 0 0 0 0 0 0 0 0 0 0 0 0 0 0 0 0 0 0 0
0 0 0 0 0 0 0 0 0 0 0 0 0 0 0 0 0 0 0 0 0 0 0 0 0 0 0 0 0 0 0 0 0 0 0 0 0 0 0 0 0 0 0
0 0 0 0 0 0 0 0 0 0 0 0 0 0 0 0 0 0 0 0 0 0 0 0 0 0 0 0 0 0 0 0 0 0 0 0 0 0 0 0 0 1 0
0 0 0 0 0 0 0 0 0 0 0 0 0 0 0 0 0 0 0 0 0 0 0 0 0 0 6 5 2 0 0 0 0 0 0 0 1 2 3 1 3 0 0
0 0 0 0 0 0 0 0 0 0 0 0 0 0 0 0 0 0 0 0 0 0 0 0 0 0 0 0 0 10 8 1 0 7 0 5 0 0 0 5 1 0 0
0 0 0 0 0 0 0 0 0 0 0 0 0 0 0 0 0 0 0 0 0 0 0 0 0 0 0 0 0 0 0 0 4 3 4 0 0 0 0 0 0 0 0
0 0 0 0 0 0 0 0 0 0 0 0 0 0 0 0 0 0 0 0 0 0 0 0 0 0 0 1 0 0 0 0 1 0 0 1 0 0 0 0 0 0 0
0 0 0 0 0 0 0 0 0 0 0 0 0 0 0 0 0 0 0 0 0 0 0 0 0 0 0 6 9 8 8 7 15 39 52 56 59 68 50 19 22 12 11
0 0 0 0 0 0 0 0 0 0 0 0 0 0 0 0 0 0 0 0 0 0 0 0 0 0 8 14 3 7 0 0 0 0 10 0 0 0 20 1 0 3 0
0 0 0 0 0 0 0 0 0 0 0 0 0 0 0 0 0 0 1 0 0 0 0 0 0 4 17 22 47 14 16 21 16 4 4 0 0 0 3 0 0 26 17
0 0 0 0 0 0 0 0 0 0 0 0 0 0 0 0 0 0 2 4 8 1 0 0 0 20 34 24 18 17 22 19 0 0 0 0 2 2 0 0 0 0 0
0 0 0 0 0 0 0 0 0 0 0 0 0 0 0 0 0 0 0 7 10 4 0 7 20 13 15 9 12 14 8 0 0 0 1 6 5 1 0 0 0 0 0
0 0 0 0 0 0 0 0 0 0 0 0 0 0 0 0 0 0 0 0 3 0 3 0 0 5 7 2 0 0 0 0 4 3 6 4 6 7 4 0 0 0 1
0 0 0 0 0 0 0 0 0 0 0 0 0 0 0 0 0 3 11 8 3 3 1 0 0 0 0 0 0 0 0 0 0 0 0 0 0 0 1 2 4 2 0
0 0 0 0 0 0 0 0 0 0 0 0 0 0 0 2 7 18 16 10 12 13 0 0 0 0 0 0 0 0 0 2 6 10 2 0 0 0 0 0 1 0 7
0 0 0 0 0 0 0 0 0 0 0 0 0 0 0 5 6 18 5 5 6 4 0 0 0 0 0 0 0 1 1 1 0 0 0 2 12 6 10 0 0 4 3
0 0 0 0 0 0 0 0 0 0 0 0 0 0 1 1 10 8 3 1 0 0 0 1 1 2 1 2 2 2 2 2 2 2 4 0 1 1 0 0 3 3 2
0 0 0 0 0 0 0 0 0 0 0 0 0 0 1 3 5 2 5 0 0 1 0 1 2 3 2 2 2 2 2 1 3 2 1 1 0 0 1 0 0 18 20
0 0 0 0 0 0 0 0 0 0 0 0 0 0 0 0 1 0 0 0 0 1 3 3 3 3 2 1 1 1 1 1 1 1 1 1 1 2 3 1 3 4 1
0 0 0 0 0 0 0 0 0 0 0 0 0 0 2 0 0 0 0 0 5 3 3 3 1 2 2 2 2 1 1 1 1 1 4 0 1 1 2 3 4 5 7
0 0 0 0 0 0 0 0 0 0 0 0 0 0 2 0 0 1 0 3 10 7 7 5 3 3 3 4 5 4 3 3 4 2 1 7 2 1 1 1 2 3 3
0 0 0 0 0 0 0 0 0 0 0 0 0 0 0 0 0 2 7 3 6 5 8 8 4 3 3 4 8 9 9 12 14 2 2 5 10 1 2 1 1 2 2
0 0 0 0 0 0 0 0 0 0 0 0 0 0 0 0 4 6 2 1 11 4 1 3 7 1 2 2 4 5 9 12 1 4 7 4 3 4 4 3 5 2 1
0 0 0 0 0 0 0 0 0 0 0 0 0 0 0 3 5 5 4 6 10 1 0 0 0 6 5 3 3 4 7 8 7 4 4 4 4 4 3 2 1 1 3
0 0 0 0 0 0 0 0 0 0 0 0 0 0 0 0 0 8 6 2 3 1 0 1 0 0 2 5 7 10 10 8 8 10 7 7 7 5 5 5 3 3 2
CIN
-0 -0 -0 -0 -0 -0 -0 -0 -0 -0 -0 -0 -0 -0 -0 -0 -0 -0 -0 -0 -0 -0 -0 -0 -0 -0 -0 -0 -0 -0 -0 -0 -0 -0 -0 -0 -0 -0 -0 -0 -0 -0 -0
-0 -0 -0 -0 -0 -0 -0 -0 -0 -0 -0 -0 -0 -0 -0 -0 -0 -0 -0 -0 -0 -0 -0 -0 -0 -0 -0 -0 -0 -0 -0 -0 -0 -0 -0 -0 -0 -0 -0 -0 -0 -0 -0
-0 -0 -0 -0 -0 -0 -0 -0 -0 -0 -0 -0 -0 -0 -0 -0 -0 -0 -0 -0 -0 -0 -0 -0 -0 -0 -0 -0 -0 -0 -0 -0 -0 -0 -0 -0 -0 -0 -0 -0 -0 -0 -0
-0 -0 -0 -0 -0 -0 -0 -0 -0 -0 -0 -0 -0 -0 -0 -0 -0 -0 -0 -0 -0 -0 -0 -0 -0 -0 -0 -0 -0 -0 -0 -0 -0 -0 -0 -0 -0 -0 -0 -10 -0 -25 -0
-0 -0 -0 -0 -0 -0 -0 -0 -0 -0 -0 -0 -0 -0 -0 -0 -0 -0 -0 -0 -0 -0 -0 -0 -0 -0 -1 -2 -1 -0 -0 -0 -0 -0 -0 -0 -12 -57 -47 -21 -30 -0 -0
-0 -0 -0 -0 -0 -0 -0 -0 -0 -0 -0 -0 -0 -0 -0 -0 -0 -0 -0 -0 -0 -0 -0 -0 -0 -0 -0 -0 -0 -0 -2 -11 -0 -37 -7 -29 -0 -0 -0 -26 -30 -0 -0
-0 -0 -0 -0 -0 -0 -0 -0 -0 -0 -0 -0 -0 -0 -0 -0 -0 -0 -0 -0 -0 -0 -0 -0 -0 -0 -0 -0 -0 -0 -0 -0 -0 -8 -8 -0 -0 -0 -0 -0 -0 -0 -15
-0 -0 -0 -0 -0 -0 -0 -0 -0 -0 -0 -0 -0 -0 -0 -0 -0 -0 -0 -0 -0 -0 -0 -0 -0 -0 -0 -1 -0 -0 -0 -6 -5 -0 -0 -8 -0 -0 -0 -0 -0 -0 -0
-0 -0 -0 -0 -0 -0 -0 -0 -0 -0 -0 -0 -0 -0 -0 -0 -0 -0 -0 -0 -0 -0 -0 -0 -0 -0 -0 -0 -7 -18 -18 -21 -9 -0 -0 -0 -0 -0 -6 -11 -2 -1 -0
-0 -0 -0 -0 -0 -0 -0 -0 -0 -0 -0 -0 -0 -0 -0 -0 -0 -0 -0 -0 -0 -0 -0 -0 -0 -0 -0 -0 -5 -15 -0 -0 -0 -0 -11 -10 -0 -0 -8 -11 -0 -1 -3
-0 -0 -0 -0 -0 -0 -0 -0 -0 -0 -0 -0 -0 -0 -0 -0 -0 -0 -0 -0 -0 -0 -0 -0 -0 -0 -0 -0 -0 -2 -3 -12 -6 -2 -1 -0 -0 -7 -9 -9 -21 -11 -9
-0 -0 -0 -0 -0 -0 -0 -0 -0 -0 -0 -0 -0 -0 -0 -0 -0 -0 -0 -0 -0 -4 -0 -0 -0 -0 -0 -0 -1 -0 -0 -0 -0 -0 -0 -0 -0 -0 -0 -0 -0 -0 -0
-0 -0 -0 -0 -0 -0 -0 -0 -0 -0 -0 -0 -0 -0 -0 -0 -0 -0 -0 -0 -0 -3 -0 -2 -0 -0 -0 -2 -0 -0 -0 -0 -0 -0 -4 -3 -5 -10 -0 -0 -0 -0 -0
-0 -0 -0 -0 -0 -0 -0 -0 -0 -0 -0 -0 -0 -0 -0 -0 -0 -0 -0 -0 -0 -0 -1 -0 -0 -0 -0 -0 -0 -0 -4 -6 -0 -0 -1 -2 -3 -4 -7 -0 -0 -0 -0
-0 -0 -0 -0 -0 -0 -0 -0 -0 -0 -0 -0 -0 -0 -0 -0 -0 -0 -1 -1 -3 -2 -2 -0 -4 -0 -0 -0 -0 -0 -0 -0 -0 -0 -0 -0 -0 -0 -0 -3 -0 -0 -0
-0 -0 -0 -0 -0 -0 -0 -0 -0 -0 -0 -0 -0 -0 -0 -0 -0 -0 -0 -0 -0 -0 -0 -0 -0 -0 -0 -0 -0 -0 -0 -0 -0 -0 -0 -0 -0 -0 -0 -0 -0 -0 -0
-0 -0 -0 -0 -0 -0 -0 -0 -0 -0 -0 -0 -0 -0 -0 -0 -0 -0 -0 -0 -0 -1 -0 -0 -0 -0 -0 -0 -0 -0 -0 -0 -0 -0 -0 -0 -0 -0 -0 -0 -0 -0 -0
-0 -0 -0 -0 -0 -0 -0 -0 -0 -0 -0 -0 -0 -0 -0 -0 -0 -0 -0 -0 -0 -5 -0 -0 -0 -0 -0 -0 -0 -0 -0 -0 -0 -0 -0 -0 -0 -0 -0 -0 -0 -0 -0
-0 -0 -0 -0 -0 -0 -0 -0 -0 -0 -0 -0 -0 -0 -0 -0 -0 -0 -0 -0 -0 -9 -6 -0 -0 -0 -0 -0 -0 -0 -0 -0 -0 -0 -0 -0 -0 -0 -0 -0 -0 -0 -0
-0 -0 -0 -0 -0 -0 -0 -0 -0 -0 -0 -0 -0 -0 -0 -0 -1 -0 -2 -0 -2 -2 -0 -0 -0 -0 -0 -0 -0 -0 -0 -0 -0 -0 -0 -0 -0 -0 -0 -0 -0 -0 -0
-0 -0 -0 -0 -0 -0 -0 -0 -0 -0 -0 -0 -0 -0 -0 -0 -2 -1 -5 -0 -1 -0 -0 -0 -0 -0 -0 -0 -0 -0 -0 -0 -0 -0 -0 -1 -0 -0 -0 -0 -0 -0 -0
-0 -0 -0 -0 -0 -0 -0 -0 -0 -0 -0 -0 -0 -0 -0 -0 -1 -2 -3 -3 -0 -0 -0 -0 -0 -0 -0 -0 -0 -0 -0 -1 -0 -3 -0 -0 -0 -0 -1 -0 -0 -0 -0
-0 -0 -0 -0 -0 -0 -0 -0 -0 -0 -0 -0 -0 -0 -0 -0 -1 -1 -0 -1 -0 -0 -0 -0 -0 -0 -0 -0 -0 -0 -0 -0 -0 -0 -0 -0 -0 -0 -0 -0 -0 -0 -0
-0 -0 -0 -0 -0 -0 -0 -0 -0 -0 -0 -0 -0 -0 -0 -0 -2 -1 -1 -3 -0 -0 -1 -0 -0 -0 -0 -0 -0 -0 -0 -0 -0 -0 -0 -0 -1 -0 -0 -0 -0 -0 -0
-0 -0 -0 -0 -0 -0 -0 -0 -0 -0 -0 -0 -0 -0 -0 -3 -2 -3 -4 -1 -1 -1 -0 -0 -0 -0 -0 -0 -0 -0 -0 -0 -0 -0 -0 -0 -0 -0 -0 -0 -0 -0 -0
-0 -0 -0 -0 -0 -0 -0 -0 -0 -0 -0 -0 -0 -0 -0 -0 -0 -7 -1 -1 -1 -6 -0 -0 -0 -0 -0 -0 -0 -0 -0 -0 -0 -0 -0 -0 -0 -0 -0 -0 -0 -0 -0
Wind_Speed
13 11 12 9 9 8 7 8 8 8 8 8 7 7 7 6 5 4 2 2 2 3 3 1 3 4 1 3 2 2 3 3 5 6 4 3 3 4 5 4 2 2 4
10 12 11 9 8 7 8 10 9 9 8 8 6 6 5 4 3 3 3 3 4 5 5 4 3 3 3 1 2 5 4 3 2 4 3 2 3 3 2 4 6 6 5
11 11 11 10 9 9 9 9 8 8 7 6 6 5 5 4 4 3 3 3 4 6 6 4 1 1 3 3 4 4 2 2 3 3 4 3 4 0 2 3 6 6 3
11 10 10 8 8 10 8 9 9 7 9 8 8 7 7 8 10 7 6 6 6 4 1 3 3 1 2 3 3 4 4 4 3 3 2 2 0 3 2 4 5 4 3
9 9 8 7 8 10 9 9 8 8 8 8 7 7 7 8 6 7 8 7 7 7 6 5 4 6 10 7 2 4 4 3 3 3 3 2 4 5 6 4 6 3 4
8 8 8 7 8 7 6 7 8 7 7 8 8 7 7 5 11 11 9 6 7 6 5 6 6 8 8 12 12 15 12 5 5 4 3 5 5 5 4 6 4 3 4
7 7 7 7 7 6 7 7 7 7 7 7 7 7 6 6 9 9 9 5 6 6 5 5 4 4 8 5 9 13 13 18 18 11 7 6 4 3 2 6 7 5 6
7 7 7 7 7 7 7 7 6 5 6 5 6 5 6 5 8 7 9 6 6 6 5 5 5 6 7 7 4 5 6 6 8 7 9 9 7 9 10 9 6 5 6
7 7 7 7 7 7 7 7 6 6 5 4 4 5 6 2 4 6 7 5 5 6 5 5 4 5 11 14 5 6 7 7 11 19 20 18 19 21 17 6 5 6 6
7 7 7 7 7 7 6 5 3 4 3 2 3 4 4 3 7 9 7 3 4 4 5 5 10 10 14 15 7 6 6 8 8 9 5 9 12 10 14 8 4 6 5
7 7 7 7 7 6 5 3 3 4 3 3 4 4 4 6 5 8 9 1 2 2 3 3 3 13 14 16 17 7 9 12 10 5 6 5 6 7 6 5 5 5 6
7 7 7 6 4 4 5 3 4 4 4 4 4 4 3 5 8 7 8 11 12 4 4 3 5 15 17 18 14 17 19 16 5 4 4 5 5 5 5 5 6 4 4
7 6 6 6 5 4 4 4 3 4 3 3 3 3 3 3 4 12 11 14 13 6 4 10 17 17 17 11 14 16 14 6 6 6 5 6 5 4 4 4 5 6 7
8 7 6 6 5 4 3 3 3 4 4 4 4 4 3 3 4 4 4 4 8 7 8 5 11 12 12 12 9 8 6 6 7 6 6 7 6 5 4 3 4 4 7
7 6 6 5 3 5 4 4 4 3 4 2 2 3 3 4 4 9 9 5 5 7 8 4 4 5 4 4 5 5 5 6 6 5 5 6 6 6 6 4 4 5 6
7 6 5 5 3 3 4 3 4 6 6 5 3 1 2 6 10 13 10 11 12 10 3 3 3 4 4 5 6 6 6 8 6 6 6 6 6 6 6 5 5 4 6
7 7 5 5 4 4 2 2 3 4 4 5 4 2 3 7 10 11 8 8 9 8 2 3 4 3 4 5 6 5 6 6 6 7 7 7 7 7 9 6 5 5 6
7 14 6 4 4 4 3 3 2 2 1 2 5 2 4 8 11 8 7 6 3 4 2 3 3 4 5 5 6 6 6 6 6 6 5 7 6 7 7 7 6 6 6
7 5 6 5 4 5 4 3 2 1 1 2 1 3 5 8 10 6 7 2 2 3 2 4 4 5 5 5 6 6 6 6 7 6 6 6 5 5 7 8 6 12 11
7 11 8 5 5 4 3 2 2 2 1 2 1 1 2 4 3 3 3 2 3 2 3 4 5 5 5 6 6 6 6 6 6 6 6 6 6 5 6 7 6 6 5
5 6 10 5 5 4 4 3 3 1 1 1 2 1 5 2 2 3 3 3 3 3 4 4 5 5 5 5 6 6 6 7 7 7 6 6 7 7 7 6 7 7 7
7 5 5 5 4 4 3 3 3 3 2 2 2 2 5 2 2 3 4 4 4 4 4 4 5 5 5 6 6 7 8 8 7 7 6 8 8 7 7 7 7 7 7
8 7 5 4 4 6 3 3 3 3 2 2 3 2 1 2 2 4 4 5 4 3 4 5 6 6 5 7 7 7 8 8 8 5 9 10 9 10 9 9 8 8 7
9 7 6 5 5 4 4 4 3 3 3 2 1 2 2 1 3 3 4 5 5 4 4 4 6 9 8 8 8 8 8 8 7 9 12 10 10 12 10 9 9 10 10
8 6 6 5 5 4 4 2 3 4 2 1 2 1 2 2 3 4 5 5 5 5 7 6 6 9 10 12 13 13 13 17 15 17 10 11 12 14 11 9 10 9 11
6 6 5 5 5 4 4 3 4 3 2 3 1 3 2 4 5 4 4 5 5 7 9 7 8 12 13 11 12 16 19 21 17 19 12 9 10 9 9 11 13 10 11
Wind_Direction
77 73 71 68 69 74 81 86 87 91 93 94 99 104 100 101 96 101 137 157 173 150 98 81 96 113 109 92 125 151 167 186 237 249 248 281 330 354 342 353 319 303 298
89 93 87 82 81 91 95 86 83 88 89 99 98 93 98 105 130 158 189 183 198 174 162 118 70 60 75 360 263 244 224 225 212 265 256 283 279 286 32 5 336 301 253
84 84 88 90 99 95 82 85 94 117 127 126 127 132 152 169 164 163 107 79 59 76 79 80 39 327 281 263 255 280 281 265 240 221 257 244 250 157 339 332 314 294 268
89 88 83 80 73 71 70 72 73 65 75 68 61 61 63 54 43 36 37 28 20 22 349 215 230 232 292 340 22 2 1 344 316 301 303 298 222 274 232 276 282 233 265
90 86 81 74 70 65 60 65 65 64 65 73 72 61 61 64 47 33 22 17 10 358 350 347 359 340 332 306 299 266 278 287 293 292 289 285 284 291 281 273 268 249 276
90 77 71 69 67 77 82 73 73 73 68 68 61 64 72 74 57 38 32 2 347 348 352 356 1 351 341 340 316 306 289 256 248 250 248 242 248 239 252 267 265 274 281
95 99 95 90 95 96 83 75 68 67 67 76 66 53 92 80 64 40 15 356 327 321 342 354 348 354 342 342 329 322 320 311 308 308 301 254 252 244 257 284 278 243 263
97 93 94 91 85 76 78 75 75 75 75 67 75 58 74 77 68 40 4 337 335 335 335 334 14 6 343 329 350 1 321 302 292 283 280 275 260 272 267 263 265 272 301
107 106 103 95 87 80 75 70 49 56 57 42 64 75 90 134 83 39 34 334 339 329 15 353 2 9 328 313 331 303 298 290 292 294 291 304 313 317 308 293 264 265 273
105 99 85 89 94 90 91 86 64 77 71 71 76 70 77 69 34 33 20 354 337 342 342 4 355 331 319 316 314 283 283 275 276 282 312 316 301 294 299 284 272 273 261
111 107 102 94 93 104 104 86 70 66 38 37 55 38 52 66 38 21 14 354 310 357 335 314 306 320 320 312 320 321 294 289 302 330 288 269 261 267 270 260 241 238 257
120 118 112 100 97 105 102 78 86 69 44 45 49 26 37 51 12 15 15 1 348 351 310 292 289 309 333 331 330 319 316 331 326 318 318 307 306 316 326 332 332 338 328
129 126 121 122 109 86 91 90 76 69 63 31 44 39 17 0 33 30 2 353 341 330 324 329 346 335 331 333 328 342 350 339 330 320 309 308 298 271 277 290 300 299 291
143 141 137 131 125 114 104 80 67 73 56 35 27 26 3 10 28 10 321 315 327 337 324 346 336 340 352 359 355 352 342 332 323 318 304 300 301 300 278 253 268 288 293
141 143 146 129 155 128 93 95 84 77 107 94 38 17 6 2 338 320 328 345 346 329 2 351 5 4 353 331 308 303 306 307 299 294 293 295 298 299 291 275 263 267 268
141 143 149 140 141 122 134 111 112 131 137 135 119 62 347 321 321 319 347 354 340 347 17 15 318 300 306 307 304 305 307 314 311 305 292 280 279 284 289 282 272 264 278
144 148 140 143 149 146 125 119 156 231 177 171 143 84 354 326 322 335 350 351 353 6 351 315 301 302 316 309 304 304 308 306 306 318 299 302 302 288 289 286 279 271 273
145 141 138 157 137 129 139 132 117 119 162 199 201 306 358 329 326 328 343 12 349 340 327 318 308 302 294 297 304 301 301 301 300 294 310 303 302 306 304 297 288 274 268
129 129 141 138 132 136 124 132 155 175 191 143 88 21 10 335 334 337 1 1 299 301 305 306 300 303 305 303 297 300 294 294 302 305 301 296 290 290 301 299 280 286 289
134 152 143 131 132 145 146 168 186 192 214 137 156 77 25 341 325 329 314 312 291 284 305 307 308 305 305 301 300 299 304 301 300 301 298 290 286 281 280 285 283 279 272
134 143 153 138 151 164 157 168 170 166 143 249 156 64 330 341 306 325 305 311 310 309 307 303 298 291 292 295 297 297 295 296 298 296 302 294 298 288 281 271 274 276 275
133 137 141 153 141 137 165 155 156 149 221 228 141 68 333 17 329 308 300 303 299 298 300 294 295 288 284 290 297 296 291 291 290 285 312 306 301 291 284 277 273 267 262
139 145 156 150 144 156 139 174 186 199 205 100 134 107 7 358 318 300 301 301 299 288 300 305 304 303 297 292 288 287 290 296 297 305 313 300 291 295 292 285 272 267 261
140 144 149 146 139 162 179 177 181 152 115 299 164 115 51 315 291 302 307 306 305 297 282 290 297 301 303 302 296 292 293 297 316 306 299 292 287 293 289 282 276 271 275
137 142 148 146 151 158 144 181 162 131 126 280 288 141 47 304 305 307 306 304 306 309 310 296 292 294 295 297 296 299 302 309 303 297 294 288 286 285 279 277 273 266 270
137 143 146 142 153 161 162 177 145 138 132 280 38 13 14 317 324 305 314 318 318 312 305 297 291 293 297 298 299 298 300 302 302 305 309 299 293 285 283 281 276 273 271